FW8669 Weather Reports


time (UTC)temp
C
wind
direction
speed
KPH
gust
KPH
rain 1hr
cm
rain 24hr
cm
rain mn
cm
humidity
%
barometer
mb
20260507143129 20 148 6.4 11.3 0.00 0.00 0.00 64 1021.9
20260507142624 20 199 8.0 11.3 0.00 0.00 0.00 64 1021.8
20260507142122 20 187 11.3 14.5 0.00 0.00 0.00 62 1021.6
20260507141618 20 203 11.3 12.9 0.00 0.00 0.00 63 1021.8
20260507141115 20 198 6.4 14.5 0.00 0.00 0.00 63 1021.7
20260507140611 20 148 6.4 14.5 0.00 0.00 0.00 63 1021.9
20260507140109 20 178 11.3 12.9 0.00 0.00 0.00 62 1021.9
20260507135606 20 221 8.0 12.9 0.00 0.00 0.00 61 1021.8
20260507135103 20 200 8.0 11.3 0.00 0.00 0.00 61 1021.9
20260507134559 20 212 8.0 14.5 0.00 0.00 0.00 63 1022.0
20260507134055 20 229 6.4 11.3 0.00 0.00 0.00 62 1021.8
20260507133551 20 166 8.0 16.1 0.00 0.00 0.00 63 1022.0
20260507133049 20 155 11.3 16.1 0.00 0.00 0.00 63 1022.1
20260507132546 20 192 11.3 14.5 0.00 0.00 0.00 62 1022.1
20260507132042 20 209 11.3 14.5 0.00 0.00 0.00 63 1022.2
20260507131539 20 182 8.0 14.5 0.00 0.00 0.00 61 1022.1
20260507131036 20 170 11.3 16.1 0.00 0.00 0.00 63 1022.2
20260507130533 20 210 8.0 12.9 0.00 0.00 0.00 62 1022.3
20260507130032 20 195 8.0 11.3 0.00 0.00 0.00 63 1022.2
20260507125530 21 143 11.3 16.1 0.00 0.00 0.00 62 1022.2
20260507125027 20 166 11.3 14.5 0.00 0.00 0.00 62 1022.5
20260507124523 21 209 9.7 14.5 0.00 0.00 0.00 59 1022.3
20260507124021 20 181 11.3 17.7 0.00 0.00 0.00 63 1022.4
20260507123519 20 188 16.1 17.7 0.00 0.00 0.00 62 1022.5
20260507123015 20 158 14.5 16.1 0.00 0.00 0.00 62 1022.3
20260507122510 20 175 14.5 20.9 0.00 0.00 0.00 62 1022.3
20260507122007 21 187 14.5 20.9 0.00 0.00 0.00 62 1022.6
20260507121502 20 192 12.9 17.7 0.00 0.00 0.00 62 1022.5
20260507120958 20 187 17.7 24.1 0.00 0.00 0.00 63 1022.6
20260507120455 21 190 20.9 25.7 0.00 0.00 0.00 61 1022.6
20260507115952 21 168 8.0 16.1 0.00 0.00 0.00 61 1022.4
20260507115448 21 133 16.1 22.5 0.00 0.00 0.00 57 1022.4
20260507114944 20 124 8.0 16.1 0.00 0.00 0.00 61 1022.4
20260507114440 20 116 11.3 17.7 0.00 0.00 0.00 61 1022.3
20260507113938 21 142 17.7 24.1 0.00 0.00 0.00 63 1022.5
20260507113434 22 193 14.5 16.1 0.00 0.00 0.00 58 1022.4
20260507112932 21 78 4.8 14.5 0.00 0.00 0.00 56 1022.3
20260507112429 22 85 4.8 8.0 0.00 0.00 0.00 50 1022.5
20260507111926 22 41 9.7 12.9 0.00 0.00 0.00 52 1022.2
20260507111423 22 20 6.4 11.3 0.00 0.00 0.00 51 1022.3
20260507110920 22 324 9.7 22.5 0.00 0.00 0.00 51 1022.4
20260507110416 21 1 12.9 17.7 0.00 0.00 0.00 52 1022.3
20260507105913 22 290 3.2 9.7 0.00 0.00 0.00 50 1022.3
20260507105409 22 88 9.7 20.9 0.00 0.00 0.00 51 1022.5
20260507104906 21 39 6.4 11.3 0.00 0.00 0.00 51 1022.3
20260507104402 22 117 11.3 20.9 0.00 0.00 0.00 51 1022.7
20260507103858 22 70 11.3 17.7 0.00 0.00 0.00 51 1022.5
20260507103355 22 11 12.9 14.5 0.00 0.00 0.00 49 1022.5
20260507102851 21 87 4.8 20.9 0.00 0.00 0.00 54 1022.5
20260507102348 21 165 16.1 17.7 0.00 0.00 0.00 57 1022.6
20260507101844 22 51 8.0 14.5 0.00 0.00 0.00 48 1022.7
20260507101344 22 116 4.8 8.0 0.00 0.00 0.00 46 1022.4
20260507100842 22 73 6.4 11.3 0.00 0.00 0.00 46 1022.7
20260507100340 22 99 8.0 11.3 0.00 0.00 0.00 46 1022.9
20260507095838 22 343 12.9 14.5 0.00 0.00 0.00 45 1022.8
20260507095334 22 323 9.7 16.1 0.00 0.00 0.00 46 1022.7
20260507094831 22 42 8.0 20.9 0.00 0.00 0.00 47 1022.8
20260507094328 22 22 6.4 8.0 0.00 0.00 0.00 44 1022.8
20260507093825 22 92 11.3 14.5 0.00 0.00 0.00 45 1022.8
20260507093324 22 53 11.3 20.9 0.00 0.00 0.00 45 1023.0
20260507092821 22 77 4.8 12.9 0.00 0.00 0.00 43 1023.1
20260507092318 21 31 8.0 12.9 0.00 0.00 0.00 44 1023.1
20260507091814 21 57 14.5 17.7 0.00 0.00 0.00 45 1023.1
20260507091310 22 53 9.7 12.9 0.00 0.00 0.00 44 1023.0
20260507090805 22 89 3.2 8.0 0.00 0.00 0.00 44 1022.9
20260507090302 21 81 3.2 16.1 0.00 0.00 0.00 46 1023.0
20260507085759 21 356 8.0 20.9 0.00 0.00 0.00 47 1023.3
20260507085256 21 348 9.7 12.9 0.00 0.00 0.00 51 1023.1
20260507084753 21 78 9.7 16.1 0.00 0.00 0.00 50 1023.2
20260507084249 21 78 1.6 12.9 0.00 0.00 0.00 51 1023.2
20260507083747 21 4 12.9 16.1 0.00 0.00 0.00 51 1023.3
20260507083244 21 11 11.3 17.7 0.00 0.00 0.00 52 1023.1
20260507082739 21 94 3.2 11.3 0.00 0.00 0.00 52 1023.5
20260507082235 21 91 11.3 16.1 0.00 0.00 0.00 51 1023.4
20260507081732 21 26 11.3 14.5 0.00 0.00 0.00 52 1023.3
20260507081228 21 0 14.5 16.1 0.00 0.00 0.00 53 1023.3
20260507080725 20 121 1.6 14.5 0.00 0.00 0.00 55 1023.5
20260507080221 21 39 3.2 17.7 0.00 0.00 0.00 54 1023.5
20260507075717 21 318 11.3 16.1 0.00 0.00 0.00 53 1023.3
20260507075214 21 79 1.6 14.5 0.00 0.00 0.00 54 1023.5
20260507074710 21 15 9.7 11.3 0.00 0.00 0.00 53 1023.6
20260507074208 21 47 3.2 11.3 0.00 0.00 0.00 54 1023.4
20260507073704 21 68 8.0 9.7 0.00 0.00 0.00 54 1023.2
20260507073200 20 137 3.2 11.3 0.00 0.00 0.00 57 1023.4
20260507072659 20 123 8.0 12.9 0.00 0.00 0.00 62 1023.4
20260507072156 21 157 4.8 9.7 0.00 0.00 0.00 59 1023.1
20260507071653 20 184 4.8 8.0 0.00 0.00 0.00 60 1023.3
20260507071149 21 147 4.8 4.8 0.00 0.00 0.00 56 1023.1
20260507070647 21 70 4.8 9.7 0.00 0.00 0.00 53 1023.0
20260507070143 20 33 3.2 11.3 0.00 0.00 0.00 54 1023.1
20260507065639 20 51 8.0 11.3 0.00 0.00 0.00 53 1023.0
20260507065137 21 77 8.0 12.9 0.00 0.00 0.00 53 1023.2
20260507064634 21 47 1.6 11.3 0.00 0.00 0.00 53 1023.1
20260507064133 21 307 8.0 9.7 0.00 0.00 0.00 50 1023.3
20260507063630 20 123 3.2 3.2 0.00 0.00 0.00 50 1023.2
20260507063127 20 65 4.8 4.8 0.00 0.00 0.00 51 1023.1
20260507062623 20 328 6.4 9.7 0.00 0.00 0.00 54 1023.2
20260507062121 20 42 3.2 4.8 0.00 0.00 0.00 56 1023.0
20260507061619 20 19 4.8 12.9 0.00 0.00 0.00 55 1023.0
20260507061117 20 125 0.0 3.2 0.00 0.00 0.00 57 1023.1
20260507060615 19 342 4.8 12.9 0.00 0.00 0.00 60 1022.9
20260507060111 20 0 6.4 9.7 0.00 0.00 0.00 59 1023.2
20260507055606 19 348 8.0 9.7 0.00 0.00 0.00 60 1023.0
20260507055102 19 347 4.8 8.0 0.00 0.00 0.00 61 1023.0
20260507054558 19 359 4.8 4.8 0.00 0.00 0.00 62 1022.7
20260507054056 19 62 3.2 4.8 0.00 0.00 0.00 65 1023.1
20260507053553 18 160 4.8 11.3 0.00 0.00 0.00 67 1022.7
20260507053052 18 345 4.8 11.3 0.00 0.00 0.00 67 1022.9
20260507052549 18 343 6.4 11.3 0.00 0.00 0.00 68 1022.7
20260507052046 18 295 9.7 12.9 0.00 0.00 0.00 68 1022.9
20260507051543 18 319 6.4 9.7 0.00 0.00 0.00 69 1022.8
20260507051040 18 304 6.4 11.3 0.00 0.00 0.00 69 1022.8
20260507050537 18 114 0.0 1.6 0.00 0.00 0.00 69 1022.8
20260507050033 18 293 1.6 3.2 0.00 0.00 0.00 68 1022.8
20260507045530 18 114 1.6 4.8 0.00 0.00 0.00 67 1022.7
20260507045027 17 138 0.0 1.6 0.00 0.00 0.00 70 1022.7
20260507044524 17 134 0.0 4.8 0.00 0.00 0.00 71 1022.7
20260507044021 17 322 4.8 8.0 0.00 0.00 0.00 71 1022.6
20260507043516 16 240 3.2 3.2 0.00 0.00 0.00 72 1022.7
20260507043014 16 1 3.2 8.0 0.00 0.00 0.00 72 1022.8
20260507042510 16 158 0.0 1.6 0.00 0.00 0.00 73 1022.6
20260507042005 16 212 3.2 4.8 0.00 0.00 0.00 73 1022.5
20260507041503 16 285 8.0 9.7 0.00 0.00 0.00 73 1022.8
20260507040959 16 330 3.2 3.2 0.00 0.00 0.00 74 1022.5
20260507040455 15 292 4.8 8.0 0.00 0.00 0.00 74 1022.3
20260507035951 15 304 6.4 11.3 0.00 0.00 0.00 75 1022.4
20260507035448 15 13 11.3 12.9 0.00 0.00 0.00 75 1022.4
20260507034945 15 320 11.3 12.9 0.00 0.00 0.00 76 1022.3
20260507034442 15 3 6.4 12.9 0.00 0.00 0.00 76 1022.4
20260507033940 14 312 6.4 12.9 0.00 0.00 0.00 77 1022.1
20260507033437 14 16 8.0 9.7 0.00 0.00 0.00 77 1022.1
20260507032934 14 330 6.4 12.9 0.00 0.00 0.00 78 1022.2
20260507032431 13 314 9.7 12.9 0.00 0.00 0.00 78 1022.2
20260507031927 13 324 8.0 11.3 0.00 0.00 0.00 78 1022.1
20260507031426 13 316 11.3 12.9 0.00 0.00 0.00 78 1022.1
20260507030921 13 343 4.8 9.7 0.00 0.00 0.00 78 1022.0
20260507030418 13 309 9.7 11.3 0.00 0.00 0.00 79 1022.0
20260507025915 13 325 8.0 11.3 0.00 0.00 0.00 79 1022.3
20260507025412 13 329 9.7 12.9 0.00 0.00 0.00 80 1021.8
20260507024910 13 323 8.0 12.9 0.00 0.00 0.00 80 1022.0
20260507024407 13 340 9.7 14.5 0.00 0.00 0.00 80 1022.0
20260507023903 13 317 8.0 12.9 0.00 0.00 0.00 80 1021.8
20260507023400 13 319 12.9 12.9 0.00 0.00 0.00 80 1021.8
20260507022857 13 315 14.5 17.7 0.00 0.00 0.00 81 1021.7
20260507022353 13 344 11.3 14.5 0.00 0.00 0.00 81 1021.5
20260507021849 13 340 12.9 14.5 0.00 0.00 0.00 81 1021.6
20260507021345 13 329 14.5 14.5 0.00 0.00 0.00 81 1021.5
20260507020843 13 338 11.3 14.5 0.00 0.00 0.00 81 1021.5
20260507020339 13 330 8.0 14.5 0.00 0.00 0.00 81 1021.5
20260507015836 13 329 11.3 12.9 0.00 0.00 0.00 81 1021.6
20260507015334 13 319 11.3 14.5 0.00 0.00 0.00 80 1021.7
20260507014831 13 327 9.7 14.5 0.00 0.00 0.00 80 1021.6
20260507014327 13 334 12.9 14.5 0.00 0.00 0.00 80 1021.6
20260507013824 13 353 11.3 14.5 0.00 0.00 0.00 79 1021.4
20260507013321 13 330 12.9 16.1 0.00 0.00 0.00 79 1021.5
20260507012819 13 330 11.3 14.5 0.00 0.00 0.00 79 1021.5
20260507012314 13 354 11.3 12.9 0.00 0.00 0.00 78 1021.6
20260507011812 13 347 9.7 14.5 0.00 0.00 0.00 78 1021.3
20260507011308 13 336 9.7 14.5 0.00 0.00 0.00 78 1021.4
20260507010808 13 334 12.9 16.1 0.00 0.00 0.00 78 1021.4
20260507010304 13 338 9.7 12.9 0.00 0.00 0.00 79 1021.4
20260507005802 13 11 8.0 11.3 0.00 0.00 0.00 79 1021.4
20260507005258 13 340 6.4 12.9 0.00 0.00 0.00 78 1021.3
20260507004754 13 322 6.4 11.3 0.00 0.00 0.00 78 1021.6
20260507004252 13 344 6.4 11.3 0.00 0.00 0.00 78 1021.6
20260507003748 13 324 9.7 14.5 0.00 0.00 0.00 77 1021.5
20260507003243 13 326 8.0 11.3 0.00 0.00 0.00 77 1021.5
20260507002740 13 338 8.0 11.3 0.00 0.00 0.00 78 1021.5
20260507002236 13 7 11.3 16.1 0.00 0.00 0.00 78 1021.5
20260507001733 13 333 6.4 12.9 0.00 0.00 0.00 78 1021.5
20260507001230 13 325 11.3 14.5 0.00 0.00 0.00 78 1021.6
20260507000727 13 299 12.9 14.5 0.00 0.00 0.00 78 1021.6
20260507000222 13 309 9.7 12.9 0.00 0.00 0.00 78 1021.7
20260506235719 13 312 14.5 17.7 0.00 0.00 0.00 78 1021.7
20260506235214 13 319 8.0 14.5 0.00 0.00 0.00 78 1021.7
20260506234712 13 322 14.5 17.7 0.00 0.00 0.00 78 1021.5
20260506234209 13 347 14.5 17.7 0.00 0.00 0.00 78 1021.6
20260506233707 13 338 11.3 17.7 0.00 0.00 0.00 77 1021.7
20260506233203 13 347 12.9 16.1 0.00 0.00 0.00 77 1021.5
20260506232659 13 330 1.6 8.0 0.00 0.00 0.00 77 1021.4
20260506232154 13 325 0.0 8.0 0.00 0.00 0.00 77 1021.4
20260506231652 13 338 0.0 4.8 0.00 0.00 0.00 78 1021.6
20260506231151 13 333 1.6 8.0 0.00 0.00 0.00 79 1021.5
20260506230647 13 344 3.2 9.7 0.00 0.00 0.00 80 1021.6
20260506230144 13 343 8.0 11.3 0.00 0.00 0.00 80 1021.6
20260506225640 13 344 4.8 11.3 0.00 0.00 0.00 80 1021.7
20260506225137 13 358 4.8 12.9 0.00 0.00 0.00 80 1021.7
20260506224633 13 7 4.8 11.3 0.00 0.00 0.00 80 1021.6
20260506224130 13 353 6.4 11.3 0.00 0.00 0.00 79 1021.7
20260506223626 13 328 6.4 11.3 0.00 0.00 0.00 79 1021.8
20260506223122 14 317 9.7 12.9 0.00 0.00 0.00 78 1021.7
20260506222620 13 6 8.0 11.3 0.00 0.00 0.00 78 1021.6
20260506222116 13 340 3.2 9.7 0.00 0.00 0.00 78 1021.8
20260506221614 13 336 1.6 11.3 0.00 0.00 0.00 79 1021.7
20260506221112 13 329 0.0 8.0 0.00 0.00 0.00 78 1021.7
20260506220608 13 351 0.0 9.7 0.00 0.00 0.00 77 1021.7
20260506215600 14 325 4.8 8.0 0.00 0.00 0.00 76 1021.7
20260506215055 14 336 4.8 14.5 0.00 0.00 0.00 75 1021.7
20260506214553 14 324 9.7 12.9 0.00 0.00 0.00 74 1022.0
20260506214050 15 328 1.6 14.5 0.00 0.00 0.00 72 1021.7
20260506213548 15 329 0.0 12.9 0.00 0.00 0.00 70 1021.7
20260506213045 15 326 0.0 3.2 0.00 0.00 0.00 71 1021.7
20260506212542 15 314 0.0 0.0 0.00 0.00 0.00 71 1021.7
20260506212036 15 319 0.0 0.0 0.00 0.00 0.00 72 1021.8
20260506211533 15 331 0.0 0.0 0.00 0.00 0.00 75 1021.9
20260506211030 15 324 0.0 3.2 0.00 0.00 0.00 77 1021.9
20260506210526 15 330 0.0 0.0 0.00 0.00 0.00 78 1021.8
20260506210023 15 304 0.0 0.0 0.00 0.00 0.00 78 1021.8
20260506205520 15 296 0.0 4.8 0.00 0.00 0.00 77 1021.8
20260506205015 15 291 4.8 4.8 0.00 0.00 0.00 76 1021.9
20260506204514 15 287 4.8 4.8 0.00 0.00 0.00 75 1021.7
20260506204010 15 311 3.2 3.2 0.00 0.00 0.00 75 1021.8
20260506203508 15 316 3.2 3.2 0.00 0.00 0.00 74 1022.0
20260506203004 15 316 1.6 3.2 0.00 0.00 0.00 73 1021.7
20260506202502 15 328 1.6 3.2 0.00 0.00 0.00 74 1021.9
20260506201958 15 334 1.6 1.6 0.00 0.00 0.00 75 1021.9
20260506201456 15 357 1.6 1.6 0.00 0.00 0.00 75 1021.9
20260506200952 15 355 1.6 1.6 0.00 0.00 0.00 75 1022.1
20260506200449 15 34 1.6 1.6 0.00 0.00 0.00 75 1022.0
20260506195945 15 348 3.2 3.2 0.00 0.00 0.00 76 1021.9
20260506195442 15 86 0.0 0.0 0.00 0.00 0.00 76 1021.9
20260506194938 15 102 0.0 0.0 0.00 0.00 0.00 75 1022.0
20260506194436 15 214 0.0 0.0 0.00 0.00 0.00 75 1021.9
20260506193933 15 238 0.0 0.0 0.00 0.00 0.00 75 1021.9
20260506193430 15 227 0.0 0.0 0.00 0.00 0.00 74 1021.8
20260506192926 16 192 0.0 0.0 0.00 0.00 0.00 74 1021.9
20260506192423 16 200 0.0 0.0 0.00 0.00 0.00 74 1022.0
20260506191920 16 182 0.0 0.0 0.00 0.00 0.00 73 1021.7
20260506191416 16 132 0.0 0.0 0.00 0.00 0.00 73 1021.9
20260506190914 16 159 0.0 0.0 0.00 0.00 0.00 73 1021.8
20260506190410 16 130 0.0 0.0 0.00 0.00 0.00 73 1021.9
20260506185907 16 127 0.0 0.0 0.00 0.00 0.00 73 1021.8
20260506185404 16 137 0.0 1.6 0.00 0.00 0.00 73 1021.8
20260506184901 16 183 1.6 1.6 0.00 0.00 0.00 73 1021.6
20260506184358 16 169 0.0 1.6 0.00 0.00 0.00 72 1021.6
20260506183855 16 180 1.6 1.6 0.00 0.00 0.00 72 1021.7
20260506183350 16 151 0.0 1.6 0.00 0.00 0.00 72 1021.5
20260506182848 16 164 0.0 0.0 0.00 0.00 0.00 72 1021.5
20260506182345 16 164 0.0 0.0 0.00 0.00 0.00 71 1021.5
20260506181842 16 157 0.0 0.0 0.00 0.00 0.00 71 1021.6
20260506181340 16 157 0.0 0.0 0.00 0.00 0.00 71 1021.4
20260506180837 16 163 0.0 1.6 0.00 0.00 0.00 70 1021.3
20260506180333 16 185 1.6 1.6 0.00 0.00 0.00 71 1021.3
20260506175829 16 164 0.0 1.6 0.00 0.00 0.00 71 1021.4
20260506175326 16 186 0.0 1.6 0.00 0.00 0.00 70 1021.4
20260506174824 16 175 0.0 0.0 0.00 0.00 0.00 69 1021.0
20260506174321 17 154 0.0 1.6 0.00 0.00 0.00 69 1021.5
20260506173818 17 218 6.4 9.7 0.00 0.00 0.00 68 1021.3
20260506173315 17 223 6.4 9.7 0.00 0.00 0.00 68 1021.2
20260506172812 17 214 8.0 9.7 0.00 0.00 0.00 67 1021.3
20260506172309 17 218 4.8 9.7 0.00 0.00 0.00 68 1021.2
20260506171806 17 208 6.4 8.0 0.00 0.00 0.00 68 1021.0
20260506171303 17 209 4.8 8.0 0.00 0.00 0.00 68 1021.2
20260506170801 17 210 4.8 9.7 0.00 0.00 0.00 68 1021.0
20260506170257 17 239 8.0 9.7 0.00 0.00 0.00 67 1021.0
20260506165756 17 216 6.4 8.0 0.00 0.00 0.00 66 1021.1
20260506165253 17 178 8.0 11.3 0.00 0.00 0.00 66 1021.0
20260506164749 17 223 8.0 11.3 0.00 0.00 0.00 66 1021.0
20260506164246 17 233 8.0 11.3 0.00 0.00 0.00 65 1020.9
20260506163743 17 224 8.0 11.3 0.00 0.00 0.00 65 1020.9
20260506163238 17 215 8.0 11.3 0.00 0.00 0.00 65 1020.9
20260506162734 17 210 8.0 12.9 0.00 0.00 0.00 65 1020.8
20260506162232 17 179 8.0 12.9 0.00 0.00 0.00 65 1020.8
20260506161729 17 197 4.8 8.0 0.00 0.00 0.00 65 1020.8
20260506161226 17 188 9.7 16.1 0.00 0.00 0.00 65 1020.7
20260506160724 17 176 9.7 16.1 0.00 0.00 0.00 63 1020.6
20260506160220 17 200 11.3 14.5 0.00 0.00 0.00 63 1020.7
20260506155719 17 191 14.5 17.7 0.00 0.00 0.00 63 1020.5
20260506155216 18 177 12.9 14.5 0.00 0.00 0.00 63 1020.4
20260506153323 18 225 9.7 12.9 0.00 0.00 0.00 60 1020.4
20260506152820 18 175 14.5 17.7 0.00 0.00 0.00 60 1020.5
20260506152317 18 192 11.3 14.5 0.00 0.00 0.00 60 1020.6
20260506151816 18 208 11.3 16.1 0.00 0.00 0.00 59 1020.7
20260506151312 18 204 12.9 17.7 0.00 0.00 0.00 59 1020.6
20260506150809 18 191 11.3 17.7 0.00 0.00 0.00 59 1020.5
20260506150306 18 197 12.9 16.1 0.00 0.00 0.00 59 1020.8
20260506145803 18 202 16.1 17.7 0.00 0.00 0.00 59 1020.5
20260506145259 19 193 12.9 16.1 0.00 0.00 0.00 59 1020.5
20260506144757 18 203 16.1 17.7 0.00 0.00 0.00 59 1020.4
20260506144254 19 195 17.7 17.7 0.00 0.00 0.00 59 1020.5
20260506143752 19 215 12.9 17.7 0.00 0.00 0.00 59 1020.5